Home   Weather   Dharamshala   Past weeks

Flag for India Past Weather in Dharamshala, Himachal Pradesh, India — Yesterday and Last 2 Weeks

Now
99 °F

Clear.


Feels Like: 98 °F
Forecast: 63 / 78 °F
Wind: 3 mph from West

Location: Amritsar Airport

Current Time: May 23, 2017 at 6:01:20 pm

Latest Report: May 23, 2017 at 5:00 pm


Visibility: 4 mi

Pressure: 29.62 "Hg (25.44 "Hg at 1382m altitude)

Humidity: 25%

Dew Point: 57 °F

Location of DharamshalaLocation

Past Weather in Dharamshala — Graph

°F

Dharamshala Temperature Yesterday

Maximum temperature yesterday: 93 °F (at 3:30 pm)
Minimum temperature yesterday: 70 °F (at 2:00 am)
Average temperature yesterday: 82 °F

High & Low Weather Summary for the Past Weeks

 TemperatureHumidityPressure
High108 °F (May 8, 5:00 pm)100% (May 11, 6:00 am)29.83 "Hg (May 11, 6:00 am)
Low70 °F (May 21, 11:30 am)14% (May 8, 4:30 pm)29.47 "Hg (May 15, 5:30 pm)
Average88 °F43%29.65 "Hg
* Reported May 8 4:30 pm — May 23 4:30 pm, Dharamshala. Weather by CustomWeather, © 2017

Note: Actual official high and low records may vary slightly from our data, if they occured in-between our weather recording intervals... More about our weather records

Advertising

Dharamshala Weather History for the Previous 24 Hours

Scroll right to see more
 ConditionsComfort  
Time TempWeatherWind HumidityBarometerVisibility
4:30 pm
Tue, May 23
97 °FClear.1 mph27%29.62 "Hg4 mi
3:30 pm97 °FClear.No wind28%29.65 "Hg4 mi
3:00 pm97 °FClear.No wind28%29.68 "Hg4 mi
2:30 pm97 °FClear.No wind28%29.71 "Hg4 mi
2:00 pm97 °FClear.No wind30%29.71 "Hg4 mi
1:30 pm95 °FClear.2 mph32%29.71 "Hg4 mi
1:00 pm95 °FClear.2 mph34%29.71 "Hg4 mi
12:30 pm95 °FClear.2 mph32%29.74 "Hg4 mi
11:30 am91 °FHaze.3 mph38%29.74 "Hg2 mi
11:00 am91 °FHaze.6 mph44%29.77 "Hg2 mi
10:30 am90 °FHaze.1 mph46%29.77 "Hg2 mi
10:00 am86 °FHaze.No wind59%29.77 "Hg2 mi
9:30 am86 °FHaze.No wind59%29.77 "Hg2 mi
9:00 am84 °FHaze.No wind66%29.74 "Hg2 mi
7:30 am77 °FFog.No wind83%29.74 "Hg2 mi
6:30 am75 °FFog.2 mph100%29.71 "Hg2 mi
6:00 am75 °FFog.2 mph89%29.71 "Hg2 mi
5:30 am75 °FFog.2 mph83%29.68 "Hg2 mi
5:00 am75 °FFog.No wind89%29.68 "Hg2 mi
4:30 am75 °FFog.2 mph89%29.68 "Hg2 mi
4:00 am75 °FFog.No wind100%29.68 "Hg2 mi
3:30 am75 °FFog.No wind100%29.68 "Hg2 mi
3:00 am75 °FFog.No wind100%29.68 "Hg2 mi
2:30 am75 °FHaze.No wind100%29.68 "Hg2 mi
2:00 am75 °FHaze.No wind100%29.68 "Hg2 mi
1:30 am77 °FHaze.No wind79%29.71 "Hg2 mi
12:30 am79 °FHaze.No wind74%29.71 "Hg2 mi
12:00 am81 °FHaze.6 mph74%29.71 "Hg2 mi
11:30 pm
Mon, May 22
82 °FHaze.No wind70%29.71 "Hg2 mi
11:00 pm82 °FHaze.2 mph70%29.71 "Hg2 mi
10:30 pm82 °FPassing clouds.2 mph70%29.71 "Hg2 mi
10:00 pm86 °FPassing clouds.No wind55%29.71 "Hg2 mi
9:30 pm86 °FPassing clouds.No wind55%29.71 "Hg2 mi
9:00 pm88 °FPassing clouds.No wind49%29.71 "Hg2 mi
8:30 pm84 °FPassing clouds.No wind62%29.68 "Hg2 mi
8:00 pm88 °FPassing clouds.No wind46%29.68 "Hg2 mi
7:00 pm90 °FHaze.No wind46%29.68 "Hg2 mi
6:30 pm91 °FHaze.No wind38%29.65 "Hg2 mi
6:00 pm93 °FHaze.No wind34%29.65 "Hg2 mi
Weather by CustomWeather, © 2017

See weather overviewHow to use our weather pages